Regional Weather Roundup
Issued by NWS

Home | Current Version | Previous Version | Graphics & Text | Print | Product List | Glossary On
Versions: 1 2 3 4 5 6 7 8 9 10 11 12 13 14 15 16 17 18 19 20 21 22 23 24 25 26 27 28 29 30 31 32 33 34 35 36 37 38 39 40 41 42 43 44 45 46 47 48 49 50
000
ASUS43 KLMK 121402
RWRKY
KENTUCKY REGIONAL WEATHER ROUNDUP
NATIONAL WEATHER SERVICE LOUISVILLE KY
900 AM EST TUE DEC 12 2017

NOTE "FAIR" INDICATES FEW OR NO CLOUDS BELOW 12,000 FEET
WITH NO SIGNIFICANT WEATHER AND/OR OBSTRUCTIONS TO VISIBILITY.

KYZ001>023-026-027-061>063-070>075-121500-
WESTERN AND SOUTH CENTRAL KENTUCKY

CITY           SKY/WX    TMP DP  RH WIND       PRES   REMARKS
PADUCAH        PTCLDY    35  21  56 N14G28    30.15R WCI  26
HENDERSON      CLOUDY    34  21  59 NW21G28   30.11R WCI  22
OWENSBORO      CLOUDY    35  22  58 NW20      30.08R WCI  24
HOPKINSVILLE   CLOUDY    38  24  57 NW15      30.07R WCI  29
BOWLING GREEN  CLOUDY    37  28  70 NW10G17   30.04R WCI  30
GLASGOW        NOT AVBL
$$

KYZ024-025-028>034-038-045-046-053-121500-
NORTH CENTRAL KENTUCKY

CITY           SKY/WX    TMP DP  RH WIND       PRES   REMARKS
LOUISVILLE/SDF CLOUDY    35  19  52 NW16G23   29.99R WCI  25
LOUISVILLE/LOU CLOUDY    34  19  54 N8G20     29.99R WCI  27
FORT KNOX      PTSUNNY   33  20  59 W21G29    29.98R WCI  21
$$

KYZ035>037-039>044-047>052-055>060-089>105-121500-
NORTHEAST KENTUCKY

CITY           SKY/WX    TMP DP  RH WIND       PRES   REMARKS
LEXINGTON      MIX PCPN  33  28  81 NW14G23   29.92R WCI  23
COVINGTON      LGT SNOW  30  26  85 NW20      29.91R FOG     WCI  17
FRANKFORT      CLOUDY    33  22  63 NW15G26   29.94R WCI  23
$$

KYZ054-064>069-076>088-106>120-121500-
SOUTHEAST KENTUCKY

CITY           SKY/WX    TMP DP  RH WIND       PRES   REMARKS
JACKSON        CLOUDY    37  29  72 W8G25     29.84R WCI  31
LONDON         CLOUDY    38  30  73 NW13G25   29.89R WCI  30
SOMERSET       NOT AVBL
MIDDLESBORO    CLOUDY    41  32  69 NW13G21   29.87S
MONTICELLO     CLOUDY    37  30  75 NW16G29   29.97R WCI  28
$$




USA.gov is the U.S. government's official web portal to all federal, state and local government web resources and services.